Time,TemperatureF,DewpointF,PressureIn,WindDirection,WindDirectionDegrees,WindSpeedMPH,WindSpeedGustMPH,Humidity,HourlyPrecipIn,Conditions,Clouds,dailyrainin,SolarRadiationWatts/m^2,SoftwareType,DateUTC
2013-06-10 00:03:00,67.0,67.0,-100.00,NNE,17,2.0,4.0,99,0.01,,,0.25,0.000000,,2013-06-10 04:03:00,
2013-06-10 00:33:00,66.0,66.0,-100.00,NNE,22,1.0,4.0,99,0.01,,,0.26,0.000000,,2013-06-10 04:33:00,
2013-06-10 00:42:00,66.0,66.0,-100.00,NNE,22,1.0,4.0,99,0.01,,,0.26,0.000000,,2013-06-10 04:42:00,
2013-06-10 00:53:00,66.0,66.0,-100.00,NNE,22,1.0,4.0,99,0.01,,,0.26,0.000000,,2013-06-10 04:53:00,
2013-06-10 01:02:00,66.0,66.0,-100.00,NNE,22,1.0,4.0,99,0.01,,,0.26,0.000000,,2013-06-10 05:02:00,
2013-06-10 01:32:00,66.0,66.0,-100.00,NNE,22,2.0,3.0,99,0.00,,,0.26,0.000000,,2013-06-10 05:32:00,
2013-06-10 01:42:00,66.0,66.0,-100.00,NNE,22,2.0,3.0,99,0.00,,,0.26,0.000000,,2013-06-10 05:42:00,
2013-06-10 01:52:00,66.0,66.0,-100.00,NNE,22,2.0,3.0,99,0.00,,,0.26,0.000000,,2013-06-10 05:52:00,
2013-06-10 02:02:00,66.0,66.0,-100.00,NNE,22,2.0,3.0,99,0.00,,,0.26,0.000000,,2013-06-10 06:02:00,
2013-06-10 02:32:00,66.0,66.0,-100.00,NNE,22,2.0,7.0,99,0.00,,,0.26,0.000000,,2013-06-10 06:32:00,
2013-06-10 02:42:00,66.0,66.0,-100.00,NNE,22,2.0,7.0,99,0.00,,,0.26,0.000000,,2013-06-10 06:42:00,
2013-06-10 02:53:00,66.0,66.0,-100.00,NNE,22,2.0,7.0,99,0.00,,,0.26,0.000000,,2013-06-10 06:53:00,
2013-06-10 03:02:00,66.0,66.0,-100.00,NNE,22,2.0,7.0,99,0.00,,,0.26,0.000000,,2013-06-10 07:02:00,
2013-06-10 03:32:00,67.0,66.0,-100.00,NE,49,2.0,10.0,97,0.00,,,0.26,0.000000,,2013-06-10 07:32:00,
2013-06-10 03:42:00,67.0,66.0,-100.00,NE,49,2.0,10.0,97,0.00,,,0.26,0.000000,,2013-06-10 07:42:00,
2013-06-10 03:52:00,67.0,66.0,-100.00,NE,49,2.0,10.0,97,0.00,,,0.26,0.000000,,2013-06-10 07:52:00,
2013-06-10 04:02:00,67.0,66.0,-100.00,NE,49,2.0,10.0,97,0.00,,,0.26,0.000000,,2013-06-10 08:02:00,
2013-06-10 04:32:00,66.0,64.0,-100.00,NNE,30,1.0,9.0,92,0.06,,,0.32,0.000000,,2013-06-10 08:32:00,
2013-06-10 04:42:00,66.0,64.0,-100.00,NNE,30,1.0,9.0,92,0.06,,,0.32,0.000000,,2013-06-10 08:42:00,
2013-06-10 04:52:00,66.0,64.0,-100.00,NNE,30,1.0,9.0,92,0.06,,,0.32,0.000000,,2013-06-10 08:52:00,
2013-06-10 05:02:00,66.0,64.0,-100.00,NNE,30,1.0,9.0,92,0.06,,,0.32,0.000000,,2013-06-10 09:02:00,
2013-06-10 05:32:00,66.0,64.0,-100.00,South,176,3.0,11.0,92,0.02,,,0.34,0.000000,,2013-06-10 09:32:00,
2013-06-10 05:43:00,66.0,64.0,-100.00,South,176,3.0,11.0,92,0.02,,,0.34,0.000000,,2013-06-10 09:43:00,
2013-06-10 05:53:00,66.0,64.0,-100.00,South,176,3.0,11.0,92,0.02,,,0.34,0.000000,,2013-06-10 09:53:00,
2013-06-10 06:03:00,66.0,64.0,-100.00,South,176,3.0,11.0,92,0.02,,,0.34,0.000000,,2013-06-10 10:03:00,
2013-06-10 06:33:00,66.0,65.0,-100.00,SE,134,3.0,8.0,96,0.08,,,0.42,0.000000,,2013-06-10 10:33:00,
2013-06-10 06:42:00,66.0,65.0,-100.00,SE,134,3.0,8.0,96,0.08,,,0.42,0.000000,,2013-06-10 10:42:00,
2013-06-10 06:52:00,66.0,65.0,-100.00,SE,134,3.0,8.0,96,0.08,,,0.42,0.000000,,2013-06-10 10:52:00,
2013-06-10 07:03:00,66.0,65.0,-100.00,SE,134,3.0,8.0,96,0.08,,,0.42,0.000000,,2013-06-10 11:03:00,
2013-06-10 10:32:00,67.0,65.0,-100.00,NNE,23,2.0,7.0,92,-99.99,,,0.70,134.000000,,2013-06-10 14:32:00,
2013-06-10 10:42:00,67.0,65.0,-100.00,NNE,23,2.0,7.0,92,-99.99,,,0.70,134.000000,,2013-06-10 14:42:00,
2013-06-10 10:52:00,67.0,65.0,-100.00,NNE,23,2.0,7.0,92,-99.99,,,0.70,134.000000,,2013-06-10 14:52:00,
2013-06-10 11:03:00,67.0,65.0,-100.00,NNE,23,2.0,7.0,92,-99.99,,,0.70,134.000000,,2013-06-10 15:03:00,
2013-06-10 11:33:00,68.0,64.0,-100.00,ENE,71,2.0,6.0,86,0.07,,,0.77,195.000000,,2013-06-10 15:33:00,
2013-06-10 11:43:00,68.0,64.0,-100.00,ENE,71,2.0,6.0,86,0.07,,,0.77,195.000000,,2013-06-10 15:43:00,
2013-06-10 11:53:00,68.0,64.0,-100.00,ENE,71,2.0,6.0,86,0.07,,,0.77,195.000000,,2013-06-10 15:53:00,
2013-06-10 12:03:00,68.0,64.0,-100.00,ENE,71,2.0,6.0,86,0.07,,,0.77,195.000000,,2013-06-10 16:03:00,
2013-06-10 12:33:00,68.0,67.0,-100.00,East,92,3.0,6.0,95,0.07,,,0.83,259.000000,,2013-06-10 16:33:00,
2013-06-10 12:43:00,68.0,67.0,-100.00,East,92,3.0,6.0,95,0.07,,,0.83,259.000000,,2013-06-10 16:43:00,
2013-06-10 12:53:00,68.0,67.0,-100.00,East,92,3.0,6.0,95,0.07,,,0.83,259.000000,,2013-06-10 16:53:00,
2013-06-10 13:03:00,68.0,67.0,-100.00,East,92,3.0,6.0,95,0.07,,,0.83,259.000000,,2013-06-10 17:03:00,
2013-06-10 13:05:00,75.0,68.0,-100.00,ESE,115,3.0,8.0,80,0.00,,,0.82,666.000000,,2013-06-10 17:05:00,
2013-06-10 13:38:00,75.0,68.0,-100.00,ESE,115,3.0,8.0,80,0.00,,,0.82,666.000000,,2013-06-10 17:38:00,
2013-06-10 13:48:00,75.0,68.0,-100.00,ESE,115,3.0,8.0,80,0.00,,,0.82,666.000000,,2013-06-10 17:48:00,
2013-06-10 13:58:00,75.0,68.0,-100.00,ESE,115,3.0,8.0,80,0.00,,,0.82,666.000000,,2013-06-10 17:58:00,
2013-06-10 14:35:00,78.0,63.0,-100.00,SW,216,4.0,10.0,60,0.00,,,0.82,1064.000000,,2013-06-10 18:35:00,
2013-06-10 14:48:00,78.0,63.0,-100.00,SW,216,4.0,10.0,60,0.00,,,0.82,1064.000000,,2013-06-10 18:48:00,
2013-06-10 14:55:00,78.0,63.0,-100.00,SW,216,4.0,10.0,60,0.00,,,0.82,1064.000000,,2013-06-10 18:55:00,
2013-06-10 15:03:00,78.0,63.0,-100.00,SW,216,4.0,10.0,60,0.00,,,0.82,1064.000000,,2013-06-10 19:03:00,
2013-06-10 15:33:00,80.0,60.0,-100.00,NE,42,6.0,11.0,51,0.00,,,0.82,1007.000000,,2013-06-10 19:33:00,
2013-06-10 15:43:00,80.0,60.0,-100.00,NE,42,6.0,11.0,51,0.00,,,0.82,1007.000000,,2013-06-10 19:43:00,
2013-06-10 15:53:00,80.0,60.0,-100.00,NE,42,6.0,11.0,51,0.00,,,0.82,1007.000000,,2013-06-10 19:53:00,
2013-06-10 16:03:00,80.0,60.0,-100.00,NE,42,6.0,11.0,51,0.00,,,0.82,1007.000000,,2013-06-10 20:03:00,
2013-06-10 16:32:00,78.0,61.0,-100.00,NE,52,4.0,14.0,55,0.00,,,0.81,734.000000,,2013-06-10 20:32:00,
2013-06-10 16:43:00,78.0,61.0,-100.00,NE,52,4.0,14.0,55,0.00,,,0.81,734.000000,,2013-06-10 20:43:00,
2013-06-10 16:53:00,78.0,61.0,-100.00,NE,52,4.0,14.0,55,0.00,,,0.81,734.000000,,2013-06-10 20:53:00,
2013-06-10 17:02:00,78.0,61.0,-100.00,NE,52,4.0,14.0,55,0.00,,,0.81,734.000000,,2013-06-10 21:02:00,
2013-06-10 17:34:00,79.0,61.0,-100.00,NNE,25,5.0,12.0,55,0.00,,,0.81,804.000000,,2013-06-10 21:34:00,
2013-06-10 17:43:00,79.0,61.0,-100.00,NNE,25,5.0,12.0,55,0.00,,,0.81,804.000000,,2013-06-10 21:43:00,
2013-06-10 17:53:00,79.0,61.0,-100.00,NNE,25,5.0,12.0,55,0.00,,,0.81,804.000000,,2013-06-10 21:53:00,
2013-06-10 18:03:00,79.0,61.0,-100.00,NNE,25,5.0,12.0,55,0.00,,,0.81,804.000000,,2013-06-10 22:03:00,
2013-06-10 18:33:00,80.0,61.0,-100.00,NNE,21,5.0,10.0,52,0.00,,,0.74,640.000000,,2013-06-10 22:33:00,
2013-06-10 18:42:00,80.0,61.0,-100.00,NNE,21,5.0,10.0,52,0.00,,,0.74,640.000000,,2013-06-10 22:42:00,
2013-06-10 18:52:00,80.0,61.0,-100.00,NNE,21,5.0,10.0,52,0.00,,,0.74,640.000000,,2013-06-10 22:52:00,
2013-06-10 19:03:00,80.0,61.0,-100.00,NNE,21,5.0,10.0,52,0.00,,,0.74,640.000000,,2013-06-10 23:03:00,
2013-06-10 19:32:00,77.0,59.0,-100.00,NNE,19,3.0,15.0,53,0.00,,,0.73,395.000000,,2013-06-10 23:32:00,
2013-06-10 19:42:00,77.0,59.0,-100.00,NNE,19,3.0,15.0,53,0.00,,,0.73,395.000000,,2013-06-10 23:42:00,
2013-06-10 19:52:00,77.0,59.0,-100.00,NNE,19,3.0,15.0,53,0.00,,,0.73,395.000000,,2013-06-10 23:52:00,
2013-06-10 20:02:00,77.0,59.0,-100.00,NNE,19,3.0,15.0,53,0.00,,,0.73,395.000000,,2013-06-11 00:02:00,
2013-06-10 20:32:00,73.0,62.0,-100.00,NNE,16,3.0,8.0,68,0.00,,,0.68,116.000000,,2013-06-11 00:32:00,
2013-06-10 20:43:00,73.0,62.0,-100.00,NNE,16,3.0,8.0,68,0.00,,,0.68,116.000000,,2013-06-11 00:43:00,
2013-06-10 20:52:00,73.0,62.0,-100.00,NNE,16,3.0,8.0,68,0.00,,,0.68,116.000000,,2013-06-11 00:52:00,
2013-06-10 21:02:00,73.0,62.0,-100.00,NNE,16,3.0,8.0,68,0.00,,,0.68,116.000000,,2013-06-11 01:02:00,
2013-06-10 21:33:00,69.0,62.0,-100.00,North,7,1.0,6.0,79,0.00,,,0.65,11.000000,,2013-06-11 01:33:00,
2013-06-10 21:42:00,69.0,62.0,-100.00,North,7,1.0,6.0,79,0.00,,,0.65,11.000000,,2013-06-11 01:42:00,
2013-06-10 21:53:00,69.0,62.0,-100.00,North,7,1.0,6.0,79,0.00,,,0.65,11.000000,,2013-06-11 01:53:00,
2013-06-10 22:02:00,69.0,62.0,-100.00,North,7,1.0,6.0,79,0.00,,,0.65,11.000000,,2013-06-11 02:02:00,
2013-06-10 22:32:00,67.0,63.0,-100.00,North,8,2.0,5.0,87,0.00,,,0.60,0.000000,,2013-06-11 02:32:00,
2013-06-10 22:43:00,67.0,63.0,-100.00,North,8,2.0,5.0,87,0.00,,,0.60,0.000000,,2013-06-11 02:43:00,
2013-06-10 22:52:00,67.0,63.0,-100.00,North,8,2.0,5.0,87,0.00,,,0.60,0.000000,,2013-06-11 02:52:00,
2013-06-10 23:03:00,67.0,63.0,-100.00,North,8,2.0,5.0,87,0.00,,,0.60,0.000000,,2013-06-11 03:03:00,
2013-06-10 23:33:00,67.0,64.0,-100.00,North,9,2.0,4.0,89,0.00,,,0.59,0.000000,,2013-06-11 03:33:00,
2013-06-10 23:43:00,67.0,64.0,-100.00,North,9,2.0,4.0,89,0.00,,,0.59,0.000000,,2013-06-11 03:43:00,
2013-06-10 23:53:00,67.0,64.0,-100.00,North,9,2.0,4.0,89,0.00,,,0.59,0.000000,,2013-06-11 03:53:00,